Weather History for St. Joseph, MO

Change the Weather History Date:

Wednesday, October 23, 2013

  Actual Average Record
Temperature  
Mean Temperature 39 °F 52 °F  
Max Temperature 52 °F 64 °F 91 °F (1939)
Min Temperature 25 °F 40 °F 24 °F (1937)
Degree Days  
Heating Degree Days 26 13  
Month to date heating degree days 229 220  
Since 1 July heating degree days 267 300  
Cooling Degree Days 0 0  
Month to date cooling degree days 26 18  
Year to date cooling degree days 1285 1217  
Moisture  
Dew Point 31 °F    
Average Humidity 68    
Maximum Humidity 92    
Minimum Humidity 44    
Precipitation  
Precipitation 0.00 in 0.10 in 1.57 in (1947)
Month to date precipitation 2.29 2.14  
Year to date precipitation 25.51 31.86  
Sea Level Pressure  
Sea Level Pressure 30.15 in    
Wind  
Wind Speed 4 mph (SSE)    
Max Wind Speed 12 mph    
Max Gust Speed 15 mph    
Visibility 8 miles    
Events Fog    
T = Trace of Precipitation, MM = Missing Value Source: NWS Daily Summary

Daily Weather History Graph

Daily Weather History Graph

Search for Another Location

Airport:

Trip Planner

Search our weather history database for the weather conditions in past years. The results will help you decide how hot, cold, wet, or windy it might be!

Date:

Astronomy

Oct. 23, 2013 Rise Set
Actual Time 7:38 AM CDT 6:28 PM CDT
Civil Twilight 7:11 AM CDT 6:56 PM CDT
Nautical Twilight 6:39 AM CDT 7:27 PM CDT
Astronomical Twilight 6:08 AM CDT 7:58 PM CDT
Moon 10:00 PM CDT (10/23) 11:56 AM CDT (10/23)
Length of Visible Light 11h 44m
Length of Day
10h 49m
Waning Gibbous, 79% of the Moon is Illuminated
Oct 23
Waning Gibbous
Oct 26
Last Quarter
Nov 3
New
Nov 9
First Quarter
Nov 17
Full

Hourly Weather History & Observations

Time (CDT) Temp. Windchill Dew Point Humidity Pressure Visibility Wind Dir Wind Speed Gust Speed Precip Events Conditions
12:33 AM 35.6 °F - 30.2 °F 81% 30.12 in 10.0 mi Calm Calm - N/A   Mostly Cloudy
12:53 AM 35.1 °F - 32.0 °F 89% 30.13 in 10.0 mi Calm Calm - N/A   Overcast
1:12 AM 33.8 °F 29.6 °F 30.2 °F 87% 30.12 in 10.0 mi WSW 4.6 mph - N/A   Scattered Clouds
1:53 AM 32.0 °F - 28.9 °F 88% 30.14 in 10.0 mi Calm Calm - N/A   Clear
2:53 AM 28.9 °F - 26.1 °F 89% 30.14 in 10.0 mi Calm Calm - N/A   Clear
3:53 AM 28.9 °F 22.8 °F 26.1 °F 89% 30.15 in 10.0 mi WNW 5.8 mph - N/A   Clear
4:53 AM 30.0 °F - 27.0 °F 88% 30.15 in 10.0 mi Calm Calm - N/A   Clear
5:53 AM 28.0 °F 24.2 °F 26.1 °F 92% 30.17 in 10.0 mi NE 3.5 mph - N/A   Clear
6:53 AM 27.0 °F 23.0 °F 25.0 °F 92% 30.18 in 8.0 mi WSW 3.5 mph - N/A   Clear
7:49 AM 26.6 °F - 24.8 °F 93% 30.16 in 1.2 mi Calm Calm - N/A   Clear
7:53 AM 26.1 °F - 24.1 °F 92% 30.18 in 4.0 mi Calm Calm - N/A   Clear
8:17 AM 30.2 °F 25.4 °F 28.4 °F 93% 30.16 in 1.2 mi SW 4.6 mph - N/A   Scattered Clouds
8:19 AM 30.2 °F 25.4 °F 28.4 °F 93% 30.16 in 0.8 mi SW 4.6 mph - N/A   Mist
8:26 AM 30.2 °F 25.4 °F 30.2 °F 100% 30.16 in 0.5 mi SSW 4.6 mph - N/A Fog Light Freezing Fog
8:28 AM 30.2 °F 25.4 °F 30.2 °F 100% 30.16 in 4.0 mi SSW 4.6 mph - N/A   Clear
8:38 AM 32.0 °F - 30.2 °F 93% 30.17 in 5.0 mi Calm Calm - N/A   Scattered Clouds
8:53 AM 33.1 °F - 30.9 °F 92% 30.19 in 6.0 mi Calm Calm - N/A   Clear
9:53 AM 37.0 °F - 33.1 °F 86% 30.19 in 10.0 mi Calm Calm - N/A   Mostly Cloudy
10:53 AM 41.0 °F 39.0 °F 35.1 °F 79% 30.19 in 10.0 mi SSE 3.5 mph - N/A   Overcast
11:53 AM 43.0 °F - 34.0 °F 71% 30.18 in 10.0 mi Calm Calm - N/A   Mostly Cloudy
12:53 PM 46.9 °F - 33.1 °F 59% 30.14 in 10.0 mi SW 8.1 mph - N/A   Clear
1:53 PM 48.9 °F - 33.1 °F 54% 30.09 in 10.0 mi South 6.9 mph - N/A   Overcast
2:53 PM 51.1 °F - 30.0 °F 44% 30.08 in 10.0 mi Variable 3.5 mph - N/A   Mostly Cloudy
3:53 PM 52.0 °F - 33.1 °F 49% 30.06 in 10.0 mi East 5.8 mph - N/A   Overcast
4:53 PM 51.1 °F - 33.1 °F 50% 30.10 in 10.0 mi NNE 4.6 mph - N/A   Overcast
5:53 PM 50.0 °F - 33.1 °F 52% 30.10 in 10.0 mi East 4.6 mph - N/A   Overcast
6:53 PM 46.9 °F - 33.1 °F 59% 30.10 in 10.0 mi East 4.6 mph - N/A   Mostly Cloudy
7:53 PM 45.0 °F 41.8 °F 33.1 °F 63% 30.12 in 10.0 mi ESE 5.8 mph - N/A   Partly Cloudy
8:53 PM 45.0 °F 43.5 °F 34.0 °F 65% 30.15 in 10.0 mi NNE 3.5 mph - N/A   Overcast
9:53 PM 44.1 °F 39.0 °F 35.1 °F 71% 30.18 in 10.0 mi North 9.2 mph - N/A   Overcast
10:53 PM 43.0 °F 39.5 °F 36.0 °F 76% 30.20 in 10.0 mi North 5.8 mph - N/A   Overcast
11:53 PM 43.0 °F 38.2 °F 36.0 °F 76% 30.21 in 10.0 mi North 8.1 mph - N/A   Overcast